PRAETORIAN SDA_611

Last updated on Wed Sep 09 2026 00:03:45 GMT+0000 (Coordinated Universal Time)

1 65574U 25203K 26251.59724503 .00000177 00000+0 15090-3 0 9992 2 65574 81.2999 293.7858 0005237 349.8155 10.2894 13.83314150 50212
UTC large
Height (km)
Speed (km/s)
/
Latitude / Longitude
Inclination (degrees)
Orbital Period (minutes)
Azimuth
Elevation
Range (km)
Doppler Factor

Next 0 passes for location: London (51.5072 / 0.1276)

No passes found over London.
PRAETORIAN SDA_611